Time,TemperatureF,DewpointF,PressureIn,WindDirection,WindDirectionDegrees,WindSpeedMPH,WindSpeedGustMPH,Humidity,HourlyPrecipIn,Conditions,Clouds,dailyrainin,SoftwareType,DateUTC
2013-12-26 00:00:00,17.9,11.6,30.52,NE,46,0.0,0.0,76,0.00,,CLR,0.00,VWS V14.01,2013-12-26 05:00:00,
2013-12-26 00:01:00,17.9,11.6,30.52,NE,46,0.0,0.0,76,0.00,,FEW120,0.00,VWS V14.01,2013-12-26 05:01:00,
2013-12-26 00:06:00,17.9,11.3,30.52,NE,46,0.0,0.0,75,0.00,,FEW120,0.00,VWS V14.01,2013-12-26 05:06:00,
2013-12-26 00:11:00,17.9,11.0,30.51,NE,46,0.0,0.0,74,0.00,,FEW120,0.00,VWS V14.01,2013-12-26 05:11:00,
2013-12-26 00:16:00,18.1,11.2,30.51,ENE,59,0.0,0.0,74,0.00,,FEW120,0.00,VWS V14.01,2013-12-26 05:16:00,
2013-12-26 00:21:00,18.3,10.8,30.51,ENE,59,0.0,0.0,72,0.00,,FEW120,0.00,VWS V14.01,2013-12-26 05:21:00,
2013-12-26 00:26:00,18.6,11.1,30.50,ENE,59,0.0,0.0,72,0.00,,FEW120,0.00,VWS V14.01,2013-12-26 05:26:00,
2013-12-26 00:30:00,18.7,11.2,30.50,ENE,59,0.0,0.0,72,0.00,,CLR,0.00,VWS V14.01,2013-12-26 05:30:00,
2013-12-26 00:31:00,18.8,11.3,30.50,ENE,61,0.0,0.0,72,0.00,,FEW120,0.00,VWS V14.01,2013-12-26 05:31:00,
2013-12-26 00:36:00,19.2,11.7,30.50,ENE,62,0.0,0.0,72,0.00,,FEW120,0.00,VWS V14.01,2013-12-26 05:36:00,
2013-12-26 00:41:00,19.3,11.4,30.50,ENE,61,0.0,0.0,71,0.00,,FEW120,0.00,VWS V14.01,2013-12-26 05:41:00,
2013-12-26 00:46:00,19.5,12.0,30.50,ENE,62,0.0,0.0,72,0.00,,FEW120,0.00,VWS V14.01,2013-12-26 05:46:00,
2013-12-26 00:51:00,19.6,12.1,30.50,ENE,62,0.0,0.0,72,0.00,,FEW120,0.00,VWS V14.01,2013-12-26 05:51:00,
2013-12-26 00:56:00,19.7,12.5,30.50,ENE,61,0.0,0.0,73,0.00,,FEW120,0.00,VWS V14.01,2013-12-26 05:56:00,
2013-12-26 01:00:00,19.9,12.7,30.50,ENE,61,0.0,0.0,73,0.00,,CLR,0.00,VWS V14.01,2013-12-26 06:00:00,
2013-12-26 01:01:00,19.9,12.7,30.49,ENE,61,0.0,0.0,73,0.00,,BKN028,0.00,VWS V14.01,2013-12-26 06:01:00,
2013-12-26 01:06:00,20.0,12.8,30.49,ENE,61,0.0,0.0,73,0.00,,BKN028,0.00,VWS V14.01,2013-12-26 06:06:00,
2013-12-26 01:11:00,20.2,12.6,30.49,ENE,61,0.0,0.0,72,0.00,,BKN028,0.00,VWS V14.01,2013-12-26 06:11:00,
2013-12-26 01:16:00,20.4,12.8,30.49,ENE,61,0.0,0.0,72,0.00,,BKN028,0.00,VWS V14.01,2013-12-26 06:16:00,
2013-12-26 01:21:00,20.6,12.7,30.49,ENE,62,0.0,0.0,71,0.00,,BKN028,0.00,VWS V14.01,2013-12-26 06:21:00,
2013-12-26 01:26:00,20.7,12.8,30.50,ENE,62,0.0,0.0,71,0.00,,BKN028,0.00,VWS V14.01,2013-12-26 06:26:00,
2013-12-26 01:30:00,20.9,13.0,30.50,ENE,62,0.0,0.0,71,0.00,,CLR,0.00,VWS V14.01,2013-12-26 06:30:00,
2013-12-26 01:31:00,20.9,13.0,30.50,ENE,62,0.0,0.0,71,0.00,,BKN028,0.00,VWS V14.01,2013-12-26 06:31:00,
2013-12-26 01:36:00,20.9,13.3,30.50,ENE,61,0.0,0.0,72,0.00,,BKN028,0.00,VWS V14.01,2013-12-26 06:36:00,
2013-12-26 01:41:00,21.0,13.7,30.50,ENE,62,0.0,0.0,73,0.00,,BKN028,0.00,VWS V14.01,2013-12-26 06:41:00,
2013-12-26 01:46:00,21.1,13.8,30.50,ENE,61,0.0,0.0,73,0.00,,BKN028,0.00,VWS V14.01,2013-12-26 06:46:00,
2013-12-26 01:51:00,21.2,14.2,30.50,ESE,106,0.0,1.0,74,0.00,,BKN028,0.00,VWS V14.01,2013-12-26 06:51:00,
2013-12-26 01:56:00,21.3,14.3,30.49,East,93,0.0,1.0,74,0.00,,BKN028,0.00,VWS V14.01,2013-12-26 06:56:00,
2013-12-26 02:00:00,21.3,14.3,30.50,East,91,0.0,1.0,74,0.00,,CLR,0.00,VWS V14.01,2013-12-26 07:00:00,
2013-12-26 02:01:00,21.3,14.6,30.49,East,93,0.0,0.0,75,0.00,,OVC110,0.00,VWS V14.01,2013-12-26 07:01:00,
2013-12-26 02:06:00,21.3,14.6,30.49,East,92,0.0,0.0,75,0.00,,OVC110,0.00,VWS V14.01,2013-12-26 07:06:00,
2013-12-26 02:11:00,21.5,14.8,30.49,ENE,59,0.0,1.0,75,0.00,,OVC120,0.00,VWS V14.01,2013-12-26 07:11:00,
2013-12-26 02:16:00,21.6,15.2,30.50,ENE,58,0.0,1.0,76,0.00,,OVC120,0.00,VWS V14.01,2013-12-26 07:16:00,
2013-12-26 02:21:00,21.7,15.6,30.50,ENE,57,0.0,2.0,77,0.00,,OVC120,0.00,VWS V14.01,2013-12-26 07:21:00,
2013-12-26 02:26:00,21.9,15.8,30.49,ENE,58,0.0,2.0,77,0.00,,OVC120,0.00,VWS V14.01,2013-12-26 07:26:00,
2013-12-26 02:30:00,22.0,15.9,30.49,East,86,0.0,2.0,77,0.00,,CLR,0.00,VWS V14.01,2013-12-26 07:30:00,
2013-12-26 02:31:00,22.0,15.9,30.49,East,86,0.0,0.0,77,0.00,,OVC120,0.00,VWS V14.01,2013-12-26 07:31:00,
2013-12-26 02:36:00,22.2,16.1,30.48,East,101,0.0,0.0,77,0.00,,OVC120,0.00,VWS V14.01,2013-12-26 07:36:00,
2013-12-26 02:41:00,22.4,16.3,30.48,East,101,0.0,0.0,77,0.00,,OVC120,0.00,VWS V14.01,2013-12-26 07:41:00,
2013-12-26 02:46:00,22.5,16.7,30.49,East,101,0.0,0.0,78,0.00,,OVC120,0.00,VWS V14.01,2013-12-26 07:46:00,
2013-12-26 02:51:00,22.6,16.8,30.48,East,91,0.0,1.0,78,0.00,,OVC120,0.00,VWS V14.01,2013-12-26 07:51:00,
2013-12-26 02:56:00,22.7,16.9,30.48,East,91,0.0,1.0,78,0.00,,OVC120,0.00,VWS V14.01,2013-12-26 07:56:00,
2013-12-26 03:00:00,22.7,16.9,30.48,East,92,0.0,1.0,78,0.00,,CLR,0.00,VWS V14.01,2013-12-26 08:00:00,
2013-12-26 03:01:00,22.7,16.9,30.48,East,91,0.0,0.0,78,0.00,,OVC032,0.00,VWS V14.01,2013-12-26 08:01:00,
2013-12-26 03:06:00,22.8,17.0,30.47,East,91,0.0,0.0,78,0.00,,OVC032,0.00,VWS V14.01,2013-12-26 08:06:00,
2013-12-26 03:11:00,22.9,17.1,30.47,ENE,69,0.0,1.0,78,0.00,,OVC032,0.00,VWS V14.01,2013-12-26 08:11:00,
2013-12-26 03:16:00,22.9,17.4,30.47,NE,52,0.0,1.0,79,0.00,,OVC032,0.00,VWS V14.01,2013-12-26 08:16:00,
2013-12-26 03:21:00,23.0,17.5,30.47,NE,52,0.0,1.0,79,0.00,,OVC032,0.00,VWS V14.01,2013-12-26 08:21:00,
2013-12-26 03:26:00,23.1,17.6,30.47,NE,52,0.0,1.0,79,0.00,,OVC032,0.00,VWS V14.01,2013-12-26 08:26:00,
2013-12-26 03:30:00,23.2,18.0,30.47,NE,53,0.0,1.0,80,0.00,,CLR,0.00,VWS V14.01,2013-12-26 08:30:00,
2013-12-26 03:31:00,23.2,17.7,30.47,NE,55,0.0,1.0,79,0.00,,OVC032,0.00,VWS V14.01,2013-12-26 08:31:00,
2013-12-26 03:36:00,23.3,18.1,30.46,NE,55,0.0,1.0,80,0.00,,OVC032,0.00,VWS V14.01,2013-12-26 08:36:00,
2013-12-26 03:41:00,23.4,18.1,30.46,NE,52,0.0,2.0,80,0.00,,OVC032,0.00,VWS V14.01,2013-12-26 08:41:00,
2013-12-26 03:46:00,23.6,18.6,30.46,ENE,65,0.0,2.0,81,0.00,,OVC032,0.00,VWS V14.01,2013-12-26 08:46:00,
2013-12-26 03:51:00,23.8,18.8,30.45,ENE,64,0.0,2.0,81,0.00,,OVC032,0.00,VWS V14.01,2013-12-26 08:51:00,
2013-12-26 03:56:00,24.0,19.0,30.45,NE,55,2.0,3.0,81,0.00,,OVC032,0.00,VWS V14.01,2013-12-26 08:56:00,
2013-12-26 04:00:00,24.1,19.1,30.45,NE,40,0.0,3.0,81,0.00,,CLR,0.00,VWS V14.01,2013-12-26 09:00:00,
2013-12-26 04:01:00,24.1,19.1,30.45,NE,51,0.0,0.0,81,0.00,,OVC033,0.00,VWS V14.01,2013-12-26 09:01:00,
2013-12-26 04:06:00,24.2,19.2,30.45,NE,52,2.0,3.0,81,0.00,,OVC033,0.00,VWS V14.01,2013-12-26 09:06:00,
2013-12-26 04:11:00,24.3,19.3,30.45,ENE,61,0.0,3.0,81,0.00,,OVC033,0.00,VWS V14.01,2013-12-26 09:11:00,
2013-12-26 04:16:00,24.3,19.6,30.44,ENE,68,2.0,3.0,82,0.00,,OVC033,0.00,VWS V14.01,2013-12-26 09:16:00,
2013-12-26 04:21:00,24.4,19.7,30.44,ENE,68,0.0,3.0,82,0.00,,OVC033,0.00,VWS V14.01,2013-12-26 09:21:00,
2013-12-26 04:26:00,24.6,19.9,30.44,NNW,338,0.0,3.0,82,0.00,,OVC033,0.00,VWS V14.01,2013-12-26 09:26:00,
2013-12-26 04:30:00,24.6,20.2,30.44,NNW,338,0.0,3.0,83,0.00,,CLR,0.00,VWS V14.01,2013-12-26 09:30:00,
2013-12-26 04:31:00,24.7,20.3,30.43,NE,55,1.0,1.0,83,0.00,,OVC033,0.00,VWS V14.01,2013-12-26 09:31:00,
2013-12-26 04:36:00,24.9,20.5,30.43,NE,52,0.0,1.0,83,0.00,,OVC033,0.00,VWS V14.01,2013-12-26 09:36:00,
2013-12-26 04:41:00,25.0,20.6,30.43,NW,315,0.0,1.0,83,0.00,,OVC033,0.00,VWS V14.01,2013-12-26 09:41:00,
2013-12-26 04:46:00,25.3,21.1,30.43,NE,53,0.0,2.0,84,0.00,,OVC033,0.00,VWS V14.01,2013-12-26 09:46:00,
2013-12-26 04:51:00,25.6,21.5,30.43,ENE,69,1.0,2.0,84,0.00,,OVC033,0.00,VWS V14.01,2013-12-26 09:51:00,
2013-12-26 04:56:00,25.8,21.6,30.43,ENE,66,1.0,2.0,84,0.00,,OVC033,0.00,VWS V14.01,2013-12-26 09:56:00,
2013-12-26 05:00:00,25.8,21.6,30.43,ENE,76,0.0,2.0,84,0.00,,CLR,0.00,VWS V14.01,2013-12-26 10:00:00,
2013-12-26 05:01:00,25.8,21.6,30.42,ENE,74,0.0,0.0,84,0.00,,OVC038,0.00,VWS V14.01,2013-12-26 10:01:00,
2013-12-26 05:06:00,25.9,21.7,30.42,NE,52,1.0,2.0,84,0.00,,OVC038,0.00,VWS V14.01,2013-12-26 10:06:00,
2013-12-26 05:11:00,26.0,21.8,30.42,ENE,57,0.0,2.0,84,0.00,,OVC038,0.00,VWS V14.01,2013-12-26 10:11:00,
2013-12-26 05:16:00,26.2,22.0,30.42,ENE,57,0.0,2.0,84,0.00,,OVC038,0.00,VWS V14.01,2013-12-26 10:16:00,
2013-12-26 05:21:00,26.2,22.0,30.42,ENE,58,0.0,2.0,84,0.00,,OVC038,0.00,VWS V14.01,2013-12-26 10:21:00,
2013-12-26 05:26:00,26.4,22.2,30.42,ENE,58,0.0,2.0,84,0.00,,OVC038,0.00,VWS V14.01,2013-12-26 10:26:00,
2013-12-26 05:30:00,26.5,22.3,30.42,ENE,57,0.0,2.0,84,0.00,,CLR,0.00,VWS V14.01,2013-12-26 10:30:00,
2013-12-26 05:31:00,26.6,22.4,30.42,ENE,57,0.0,0.0,84,0.00,,OVC038,0.00,VWS V14.01,2013-12-26 10:31:00,
2013-12-26 05:36:00,26.7,22.8,30.41,ENE,57,0.0,0.0,85,0.00,,OVC038,0.00,VWS V14.01,2013-12-26 10:36:00,
2013-12-26 05:41:00,26.9,23.0,30.41,ENE,58,0.0,0.0,85,0.00,,OVC038,0.00,VWS V14.01,2013-12-26 10:41:00,
2013-12-26 05:46:00,27.0,23.1,30.41,WNW,297,0.0,0.0,85,0.00,,OVC038,0.00,VWS V14.01,2013-12-26 10:46:00,
2013-12-26 05:51:00,27.2,23.6,30.40,NE,37,0.0,2.0,86,0.00,,OVC038,0.00,VWS V14.01,2013-12-26 10:51:00,
2013-12-26 05:56:00,27.5,23.9,30.40,NE,37,0.0,2.0,86,0.00,,OVC038,0.00,VWS V14.01,2013-12-26 10:56:00,
2013-12-26 06:00:00,27.7,24.1,30.40,NE,37,0.0,2.0,86,0.00,,CLR,0.00,VWS V14.01,2013-12-26 11:00:00,
2013-12-26 06:01:00,27.7,24.1,30.40,NE,38,0.0,0.0,86,0.00,,OVC038,0.00,VWS V14.01,2013-12-26 11:01:00,
2013-12-26 06:06:00,27.8,24.2,30.40,NE,37,0.0,0.0,86,0.00,,OVC038,0.00,VWS V14.01,2013-12-26 11:06:00,
2013-12-26 06:11:00,28.3,24.9,30.40,SE,127,0.0,1.0,87,0.00,,OVC038,0.00,VWS V14.01,2013-12-26 11:11:00,
2013-12-26 06:16:00,29.7,27.1,30.40,ESE,121,0.0,6.0,90,0.00,,OVC038,0.00,VWS V14.01,2013-12-26 11:16:00,
2013-12-26 06:21:00,31.2,28.3,30.39,ESE,117,3.0,8.0,89,0.00,,OVC038,0.00,VWS V14.01,2013-12-26 11:21:00,
2013-12-26 06:26:00,32.0,28.6,30.39,SE,136,5.0,10.0,87,0.00,,OVC038,0.00,VWS V14.01,2013-12-26 11:26:00,
2013-12-26 06:30:00,32.5,28.8,30.39,ESE,111,4.0,10.0,86,0.00,,CLR,0.00,VWS V14.01,2013-12-26 11:30:00,
2013-12-26 06:31:00,32.6,28.9,30.39,SSE,157,7.0,9.0,86,0.00,,OVC038,0.00,VWS V14.01,2013-12-26 11:31:00,
2013-12-26 06:36:00,33.0,28.7,30.38,East,101,1.0,11.0,84,0.00,,OVC038,0.00,VWS V14.01,2013-12-26 11:36:00,
2013-12-26 06:41:00,33.2,28.9,30.38,ESE,109,3.0,11.0,84,0.00,,OVC038,0.00,VWS V14.01,2013-12-26 11:41:00,
2013-12-26 06:46:00,33.5,28.9,30.38,SE,143,2.0,11.0,83,0.00,,OVC038,0.00,VWS V14.01,2013-12-26 11:46:00,
2013-12-26 06:51:00,33.6,29.0,30.38,ESE,103,6.0,11.0,83,0.00,,OVC038,0.00,VWS V14.01,2013-12-26 11:51:00,
2013-12-26 06:56:00,33.7,28.8,30.38,SSE,155,3.0,11.0,82,0.00,,OVC038,0.00,VWS V14.01,2013-12-26 11:56:00,
2013-12-26 07:00:00,33.7,28.8,30.38,ESE,113,8.0,11.0,82,0.00,,CLR,0.00,VWS V14.01,2013-12-26 12:00:00,
2013-12-26 07:01:00,33.7,28.8,30.38,SE,130,5.0,8.0,82,0.00,,OVC048,0.00,VWS V14.01,2013-12-26 12:01:00,
2013-12-26 07:06:00,33.9,29.0,30.38,SSE,159,5.0,9.0,82,0.00,,OVC048,0.00,VWS V14.01,2013-12-26 12:06:00,
2013-12-26 07:11:00,33.9,29.0,30.37,SE,128,2.0,9.0,82,0.00,,OVC048,0.00,VWS V14.01,2013-12-26 12:11:00,
2013-12-26 07:16:00,34.0,29.4,30.37,SSE,160,4.0,10.0,83,0.00,,OVC048,0.00,VWS V14.01,2013-12-26 12:16:00,
2013-12-26 07:21:00,34.2,29.3,30.37,East,94,2.0,11.0,82,0.00,,OVC048,0.00,VWS V14.01,2013-12-26 12:21:00,
2013-12-26 07:26:00,34.3,29.7,30.36,ESE,114,3.0,11.0,83,0.00,,OVC048,0.00,VWS V14.01,2013-12-26 12:26:00,
2013-12-26 07:30:00,34.4,29.5,30.36,ESE,111,1.0,11.0,82,0.00,,CLR,0.00,VWS V14.01,2013-12-26 12:30:00,
2013-12-26 07:31:00,34.4,29.5,30.36,ESE,120,2.0,7.0,82,0.00,,OVC048,0.00,VWS V14.01,2013-12-26 12:31:00,
2013-12-26 07:36:00,34.4,29.5,30.36,SE,129,3.0,11.0,82,0.00,,OVC048,0.00,VWS V14.01,2013-12-26 12:36:00,
2013-12-26 07:41:00,34.5,29.6,30.36,East,98,2.0,11.0,82,0.00,,OVC048,0.00,VWS V14.01,2013-12-26 12:41:00,
2013-12-26 07:46:00,34.4,29.5,30.36,SE,126,2.0,11.0,82,0.00,,OVC048,0.00,VWS V14.01,2013-12-26 12:46:00,
2013-12-26 07:51:00,34.5,29.6,30.36,ESE,113,0.0,11.0,82,0.00,,OVC048,0.00,VWS V14.01,2013-12-26 12:51:00,
2013-12-26 07:56:00,34.5,29.6,30.36,East,99,2.0,11.0,82,0.00,,OVC048,0.00,VWS V14.01,2013-12-26 12:56:00,
2013-12-26 07:59:00,34.5,29.6,30.35,East,89,1.0,11.0,82,0.00,,OVC048,0.00,VWS V14.01,2013-12-26 12:59:00,
2013-12-26 08:00:00,34.5,29.6,30.35,ENE,76,2.0,11.0,82,0.00,,CLR,0.00,VWS V14.01,2013-12-26 13:00:00,
2013-12-26 08:04:00,34.5,29.9,30.35,ESE,113,0.0,2.0,83,0.00,,OVC043,0.00,VWS V14.01,2013-12-26 13:04:00,
2013-12-26 08:09:00,34.4,29.8,30.35,ESE,107,1.0,3.0,83,0.00,,OVC043,0.00,VWS V14.01,2013-12-26 13:09:00,
2013-12-26 08:14:00,34.5,29.9,30.34,ESE,107,3.0,6.0,83,0.00,,OVC043,0.00,VWS V14.01,2013-12-26 13:14:00,
2013-12-26 08:19:00,34.8,30.2,30.34,East,96,2.0,6.0,83,0.00,,OVC043,0.00,VWS V14.01,2013-12-26 13:19:00,
2013-12-26 08:24:00,35.3,30.4,30.34,East,86,0.0,9.0,82,0.00,,OVC034,0.00,VWS V14.01,2013-12-26 13:24:00,
2013-12-26 08:29:00,35.8,30.5,30.34,ESE,119,2.0,9.0,81,0.00,,OVC034,0.00,VWS V14.01,2013-12-26 13:29:00,
2013-12-26 08:30:00,35.9,30.6,30.34,SE,137,8.0,10.0,81,0.00,,CLR,0.00,VWS V14.01,2013-12-26 13:30:00,
2013-12-26 08:34:00,36.2,30.6,30.34,SE,145,2.0,8.0,80,0.00,,OVC034,0.00,VWS V14.01,2013-12-26 13:34:00,
2013-12-26 08:39:00,36.4,30.8,30.34,East,101,2.0,8.0,80,0.00,,OVC034,0.00,VWS V14.01,2013-12-26 13:39:00,
2013-12-26 08:44:00,36.6,30.7,30.34,SE,146,4.0,8.0,79,0.00,,OVC034,0.00,VWS V14.01,2013-12-26 13:44:00,
2013-12-26 08:49:00,36.7,30.8,30.33,SSE,148,6.0,9.0,79,0.00,,OVC034,0.00,VWS V14.01,2013-12-26 13:49:00,
2013-12-26 08:54:00,37.0,31.1,30.33,SE,146,2.0,9.0,79,0.00,,OVC034,0.00,VWS V14.01,2013-12-26 13:54:00,
2013-12-26 08:59:00,37.2,31.3,30.32,East,80,9.0,9.0,79,0.00,,OVC034,0.00,VWS V14.01,2013-12-26 13:59:00,
2013-12-26 09:00:00,37.3,31.4,30.32,South,175,4.0,9.0,79,0.00,,CLR,0.00,VWS V14.01,2013-12-26 14:00:00,
2013-12-26 09:04:00,37.8,31.9,30.33,South,189,5.0,11.0,79,0.00,,OVC055,0.00,VWS V14.01,2013-12-26 14:04:00,
2013-12-26 09:09:00,38.3,31.7,30.34,SSE,148,10.0,11.0,77,0.00,,OVC055,0.00,VWS V14.01,2013-12-26 14:09:00,
2013-12-26 09:14:00,38.7,31.8,30.33,SE,144,9.0,15.0,76,0.00,,OVC050,0.00,VWS V14.01,2013-12-26 14:14:00,
2013-12-26 09:19:00,38.8,31.9,30.34,SSE,154,3.0,15.0,76,0.00,,OVC050,0.00,VWS V14.01,2013-12-26 14:19:00,
2013-12-26 09:24:00,39.0,32.1,30.34,SSE,159,6.0,15.0,76,0.00,,OVC050,0.00,VWS V14.01,2013-12-26 14:24:00,
2013-12-26 09:29:00,39.1,32.2,30.34,SSE,157,5.0,15.0,76,0.00,,OVC050,0.00,VWS V14.01,2013-12-26 14:29:00,
2013-12-26 09:30:00,39.2,32.3,30.34,East,101,2.0,15.0,76,0.00,,CLR,0.00,VWS V14.01,2013-12-26 14:30:00,
2013-12-26 09:34:00,39.3,32.4,30.34,SW,227,1.0,11.0,76,0.00,,OVC050,0.00,VWS V14.01,2013-12-26 14:34:00,
2013-12-26 09:39:00,39.3,32.4,30.34,SSE,161,11.0,12.0,76,0.00,,OVC050,0.00,VWS V14.01,2013-12-26 14:39:00,
2013-12-26 09:44:00,39.3,32.7,30.33,SSE,154,14.0,14.0,77,0.00,,OVC050,0.00,VWS V14.01,2013-12-26 14:44:00,
2013-12-26 09:49:00,39.3,33.0,30.33,South,186,1.0,14.0,78,0.00,,OVC050,0.00,VWS V14.01,2013-12-26 14:49:00,
2013-12-26 09:54:00,39.3,33.0,30.33,East,101,6.0,14.0,78,0.00,,OVC050,0.00,VWS V14.01,2013-12-26 14:54:00,
2013-12-26 09:59:00,39.2,33.2,30.32,South,173,5.0,14.0,79,0.00,,OVC050,0.00,VWS V14.01,2013-12-26 14:59:00,
2013-12-26 10:00:00,39.2,33.2,30.32,SE,146,9.0,14.0,79,0.00,,CLR,0.00,VWS V14.01,2013-12-26 15:00:00,
2013-12-26 10:04:00,39.2,33.6,30.32,East,96,6.0,12.0,80,0.00,,OVC055,0.00,VWS V14.01,2013-12-26 15:04:00,
2013-12-26 10:09:00,39.4,33.8,30.32,SE,135,5.0,12.0,80,0.00,,OVC055,0.00,VWS V14.01,2013-12-26 15:09:00,
2013-12-26 10:14:00,39.7,34.0,30.31,ESE,111,6.0,12.0,80,0.00,,OVC055,0.00,VWS V14.01,2013-12-26 15:14:00,
2013-12-26 10:19:00,39.9,34.2,30.31,East,90,3.0,14.0,80,0.00,,OVC055,0.00,VWS V14.01,2013-12-26 15:19:00,
2013-12-26 10:24:00,40.1,34.8,30.30,South,191,9.0,17.0,81,0.00,,OVC055,0.00,VWS V14.01,2013-12-26 15:24:00,
2013-12-26 10:29:00,40.0,35.0,30.29,SE,141,1.0,17.0,82,0.00,,OVC055,0.00,VWS V14.01,2013-12-26 15:29:00,
2013-12-26 10:30:00,40.0,35.0,30.29,South,179,1.0,17.0,82,0.00,,CLR,0.00,VWS V14.01,2013-12-26 15:30:00,
2013-12-26 10:34:00,40.1,35.1,30.29,SSE,155,6.0,13.0,82,0.00,,OVC055,0.00,VWS V14.01,2013-12-26 15:34:00,
2013-12-26 10:39:00,40.2,34.8,30.28,ESE,119,7.0,13.0,81,0.00,,OVC055,0.00,VWS V14.01,2013-12-26 15:39:00,
2013-12-26 10:44:00,40.2,34.8,30.28,South,182,3.0,13.0,81,0.00,,OVC055,0.00,VWS V14.01,2013-12-26 15:44:00,
2013-12-26 10:49:00,40.3,34.9,30.27,ESE,102,7.0,13.0,81,0.00,,OVC055,0.00,VWS V14.01,2013-12-26 15:49:00,
2013-12-26 10:54:00,40.3,34.9,30.27,ESE,119,1.0,13.0,81,0.00,,OVC055,0.00,VWS V14.01,2013-12-26 15:54:00,
2013-12-26 10:59:00,40.2,34.8,30.27,East,99,4.0,13.0,81,0.00,,OVC055,0.00,VWS V14.01,2013-12-26 15:59:00,
2013-12-26 11:00:00,40.2,34.8,30.27,SSW,209,7.0,13.0,81,0.00,,CLR,0.00,VWS V14.01,2013-12-26 16:00:00,
2013-12-26 11:04:00,40.1,34.8,30.27,SSE,156,2.0,10.0,81,0.00,,OVC045,0.00,VWS V14.01,2013-12-26 16:04:00,
2013-12-26 11:09:00,40.0,34.7,30.26,SW,218,2.0,10.0,81,0.00,,OVC045,0.00,VWS V14.01,2013-12-26 16:09:00,
2013-12-26 11:14:00,39.9,34.9,30.26,East,90,1.0,10.0,82,0.00,,OVC034,0.00,VWS V14.01,2013-12-26 16:14:00,
2013-12-26 11:19:00,39.8,34.8,30.26,SSE,156,3.0,10.0,82,0.00,,OVC034,0.00,VWS V14.01,2013-12-26 16:19:00,
2013-12-26 11:24:00,39.6,34.9,30.25,ESE,120,1.0,10.0,83,0.00,,OVC034,0.00,VWS V14.01,2013-12-26 16:24:00,
2013-12-26 11:29:00,39.3,34.9,30.25,SSE,164,4.0,10.0,84,0.00,,OVC034,0.00,VWS V14.01,2013-12-26 16:29:00,
2013-12-26 11:30:00,39.3,34.9,30.25,ESE,120,1.0,10.0,84,0.00,,CLR,0.00,VWS V14.01,2013-12-26 16:30:00,
2013-12-26 11:34:00,39.4,35.0,30.24,SSE,148,0.0,5.0,84,0.00,,OVC034,0.00,VWS V14.01,2013-12-26 16:34:00,
2013-12-26 11:39:00,39.6,35.5,30.23,SW,214,6.0,6.0,85,0.00,,OVC034,0.00,VWS V14.01,2013-12-26 16:39:00,
2013-12-26 11:44:00,40.0,35.9,30.23,NNE,26,2.0,7.0,85,0.00,,OVC034,0.00,VWS V14.01,2013-12-26 16:44:00,
2013-12-26 11:49:00,40.1,36.0,30.23,SE,136,1.0,7.0,85,0.00,,OVC034,0.00,VWS V14.01,2013-12-26 16:49:00,
2013-12-26 11:54:00,40.2,36.1,30.22,SSE,150,1.0,7.0,85,0.00,,OVC034,0.00,VWS V14.01,2013-12-26 16:54:00,
2013-12-26 11:59:00,40.2,36.3,30.22,ENE,76,2.0,7.0,86,0.00,,OVC034,0.00,VWS V14.01,2013-12-26 16:59:00,
2013-12-26 12:00:00,40.2,36.3,30.22,SE,137,4.0,7.0,86,0.00,,CLR,0.00,VWS V14.01,2013-12-26 17:00:00,
2013-12-26 12:04:00,40.2,36.7,30.21,ESE,115,3.0,7.0,87,0.00,,OVC060,0.00,VWS V14.01,2013-12-26 17:04:00,
2013-12-26 12:09:00,40.1,36.8,30.21,SSW,202,3.0,7.0,88,0.00,,OVC060,0.00,VWS V14.01,2013-12-26 17:09:00,
2013-12-26 12:14:00,40.1,36.8,30.20,East,90,0.0,7.0,88,0.00,,OVC060,0.00,VWS V14.01,2013-12-26 17:14:00,
2013-12-26 12:19:00,40.1,37.1,30.20,East,82,2.0,7.0,89,0.00,,OVC060,0.00,VWS V14.01,2013-12-26 17:19:00,
2013-12-26 12:24:00,40.0,37.3,30.20,SSE,164,2.0,7.0,90,0.00,,OVC060,0.00,VWS V14.01,2013-12-26 17:24:00,
2013-12-26 12:29:00,39.9,37.5,30.19,SE,142,3.0,8.0,91,0.00,,OVC060,0.00,VWS V14.01,2013-12-26 17:29:00,
2013-12-26 12:30:00,39.9,37.5,30.19,SE,144,1.0,8.0,91,0.00,,CLR,0.00,VWS V14.01,2013-12-26 17:30:00,
2013-12-26 12:34:00,39.9,37.5,30.19,SE,126,7.0,7.0,91,0.01,,OVC060,0.01,VWS V14.01,2013-12-26 17:34:00,
2013-12-26 12:39:00,39.9,37.8,30.18,SE,126,7.0,7.0,92,0.01,,OVC060,0.01,VWS V14.01,2013-12-26 17:39:00,
2013-12-26 12:44:00,39.8,37.7,30.18,ESE,105,1.0,8.0,92,0.01,,OVC060,0.01,VWS V14.01,2013-12-26 17:44:00,
2013-12-26 12:49:00,39.8,37.7,30.17,SE,135,2.0,9.0,92,0.01,,OVC060,0.01,VWS V14.01,2013-12-26 17:49:00,
2013-12-26 12:54:00,39.9,37.8,30.16,ENE,67,4.0,9.0,92,0.02,,OVC060,0.02,VWS V14.01,2013-12-26 17:54:00,
2013-12-26 12:59:00,40.0,37.3,30.16,SSW,194,9.0,11.0,90,0.02,,OVC060,0.02,VWS V14.01,2013-12-26 17:59:00,
2013-12-26 13:00:00,40.1,37.1,30.16,SSW,202,7.0,11.0,89,0.02,,CLR,0.02,VWS V14.01,2013-12-26 18:00:00,
2013-12-26 13:04:00,40.1,36.8,30.15,South,183,2.0,7.0,88,0.02,,-RA,0.02,VWS V14.01,2013-12-26 18:04:00,
2013-12-26 13:09:00,40.0,37.0,30.15,South,190,3.0,7.0,89,0.02,,-RA,0.02,VWS V14.01,2013-12-26 18:09:00,
2013-12-26 13:14:00,39.9,37.2,30.14,SSE,159,0.0,7.0,90,0.02,,-RA,0.02,VWS V14.01,2013-12-26 18:14:00,
2013-12-26 13:19:00,39.9,37.5,30.14,SW,215,0.0,7.0,91,0.03,,-RA,0.03,VWS V14.01,2013-12-26 18:19:00,
2013-12-26 13:24:00,39.9,37.8,30.14,ESE,114,2.0,7.0,92,0.04,,-RA,0.04,VWS V14.01,2013-12-26 18:24:00,
2013-12-26 13:29:00,39.8,38.0,30.13,ESE,111,0.0,7.0,93,0.05,,-RA,0.05,VWS V14.01,2013-12-26 18:29:00,
2013-12-26 13:30:00,39.8,38.0,30.13,ESE,102,0.0,7.0,93,0.05,,CLR,0.05,VWS V14.01,2013-12-26 18:30:00,
2013-12-26 13:34:00,39.8,38.0,30.13,ESE,111,0.0,3.0,93,0.06,,-RA,0.06,VWS V14.01,2013-12-26 18:34:00,
2013-12-26 13:39:00,39.7,37.8,30.12,ESE,113,0.0,3.0,93,0.06,,-RA,0.06,VWS V14.01,2013-12-26 18:39:00,
2013-12-26 13:44:00,39.6,38.0,30.11,East,98,2.0,3.0,94,0.07,,-RA,0.07,VWS V14.01,2013-12-26 18:44:00,
2013-12-26 13:49:00,39.5,37.9,30.11,SE,126,5.0,7.0,94,0.07,,-RA,0.07,VWS V14.01,2013-12-26 18:49:00,
2013-12-26 13:54:00,39.3,37.7,30.11,ESE,103,3.0,7.0,94,0.07,,RA,0.07,VWS V14.01,2013-12-26 18:54:00,
2013-12-26 13:58:00,39.2,37.6,30.12,SE,126,1.0,7.0,94,0.07,,RA,0.07,VWS V14.01,2013-12-26 18:58:00,
2013-12-26 14:00:00,39.2,37.6,30.12,South,169,1.0,7.0,94,0.07,,CLR,0.07,VWS V14.01,2013-12-26 19:00:00,
2013-12-26 14:03:00,39.1,37.5,30.11,SE,129,1.0,5.0,94,0.06,,-RA,0.08,VWS V14.01,2013-12-26 19:03:00,
2013-12-26 14:08:00,39.0,37.4,30.10,East,100,3.0,5.0,94,0.06,,-RA,0.08,VWS V14.01,2013-12-26 19:08:00,
2013-12-26 14:13:00,39.0,37.4,30.11,ESE,121,1.0,5.0,94,0.07,,-RA,0.09,VWS V14.01,2013-12-26 19:13:00,
2013-12-26 14:18:00,38.9,37.3,30.10,SE,125,3.0,5.0,94,0.07,,-RA,0.09,VWS V14.01,2013-12-26 19:18:00,
2013-12-26 14:23:00,38.8,37.2,30.10,ESE,114,2.0,5.0,94,0.07,,-RA,0.09,VWS V14.01,2013-12-26 19:23:00,
2013-12-26 14:28:00,38.7,37.1,30.10,SE,140,0.0,5.0,94,0.08,,-RA,0.10,VWS V14.01,2013-12-26 19:28:00,
2013-12-26 14:30:00,38.7,37.1,30.10,ESE,103,1.0,5.0,94,0.08,,CLR,0.10,VWS V14.01,2013-12-26 19:30:00,
2013-12-26 14:33:00,38.7,37.1,30.10,ESE,107,0.0,3.0,94,0.05,,-RA,0.10,VWS V14.01,2013-12-26 19:33:00,
2013-12-26 14:38:00,38.7,37.1,30.10,East,84,0.0,3.0,94,0.06,,-RA,0.11,VWS V14.01,2013-12-26 19:38:00,
2013-12-26 14:43:00,38.7,37.1,30.09,ESE,109,2.0,3.0,94,0.06,,-RA,0.11,VWS V14.01,2013-12-26 19:43:00,
2013-12-26 14:48:00,38.6,37.0,30.09,ESE,117,1.0,3.0,94,0.06,,-RA,0.11,VWS V14.01,2013-12-26 19:48:00,
2013-12-26 14:53:00,38.7,37.4,30.09,SE,130,0.0,3.0,95,0.06,,-RA,0.11,VWS V14.01,2013-12-26 19:53:00,
2013-12-26 14:58:00,38.7,37.1,30.08,East,94,0.0,3.0,94,0.06,,-RA,0.11,VWS V14.01,2013-12-26 19:58:00,
2013-12-26 15:00:00,38.7,37.4,30.09,SE,130,1.0,3.0,95,0.06,,CLR,0.11,VWS V14.01,2013-12-26 20:00:00,
2013-12-26 15:03:00,38.7,37.4,30.08,SE,135,0.0,2.0,95,0.04,,-RA,0.11,VWS V14.01,2013-12-26 20:03:00,
2013-12-26 15:08:00,38.7,37.1,30.08,SE,124,0.0,2.0,94,0.04,,-RA,0.11,VWS V14.01,2013-12-26 20:08:00,
2013-12-26 15:13:00,38.7,37.1,30.08,SE,124,1.0,3.0,94,0.04,,-RA,0.11,VWS V14.01,2013-12-26 20:13:00,
2013-12-26 15:18:00,38.7,37.1,30.08,SE,141,0.0,3.0,94,0.04,,-RA,0.11,VWS V14.01,2013-12-26 20:18:00,
2013-12-26 15:23:00,38.7,37.1,30.08,ESE,105,0.0,3.0,94,0.04,,-RA,0.11,VWS V14.01,2013-12-26 20:23:00,
2013-12-26 15:28:00,38.7,37.1,30.08,WNW,292,2.0,3.0,94,0.04,,-RA,0.11,VWS V14.01,2013-12-26 20:28:00,
2013-12-26 15:30:00,38.7,37.1,30.08,WNW,283,1.0,3.0,94,0.04,,CLR,0.11,VWS V14.01,2013-12-26 20:30:00,
2013-12-26 15:33:00,38.7,37.1,30.09,West,279,3.0,5.0,94,0.02,,-RA,0.12,VWS V14.01,2013-12-26 20:33:00,
2013-12-26 15:38:00,38.6,37.3,30.10,WNW,291,7.0,9.0,95,0.02,,-RA,0.12,VWS V14.01,2013-12-26 20:38:00,
2013-12-26 15:43:00,38.1,36.0,30.11,WNW,299,12.0,19.0,92,0.03,,-RA,0.13,VWS V14.01,2013-12-26 20:43:00,
2013-12-26 15:48:00,37.7,35.6,30.11,WNW,285,9.0,19.0,92,0.03,,-RA,0.13,VWS V14.01,2013-12-26 20:48:00,
2013-12-26 15:53:00,37.2,35.1,30.11,NW,313,5.0,19.0,92,0.04,,-RA,0.14,VWS V14.01,2013-12-26 20:53:00,
2013-12-26 15:58:00,36.8,34.7,30.12,NW,304,2.0,19.0,92,0.04,,-RA,0.14,VWS V14.01,2013-12-26 20:58:00,
2013-12-26 16:00:00,36.7,34.6,30.12,WNW,288,13.0,19.0,92,0.04,,CLR,0.14,VWS V14.01,2013-12-26 21:00:00,
2013-12-26 16:03:00,36.5,34.4,30.11,WNW,303,3.0,13.0,92,0.03,,-RA,0.14,VWS V14.01,2013-12-26 21:03:00,
2013-12-26 16:08:00,36.3,34.2,30.11,WNW,293,9.0,13.0,92,0.03,,-RA,0.14,VWS V14.01,2013-12-26 21:08:00,
2013-12-26 16:13:00,36.2,34.4,30.11,WNW,288,2.0,13.0,93,0.03,,-RA,0.14,VWS V14.01,2013-12-26 21:13:00,
2013-12-26 16:18:00,36.0,34.2,30.11,WNW,298,2.0,13.0,93,0.03,,-RA,0.14,VWS V14.01,2013-12-26 21:18:00,
2013-12-26 16:23:00,35.9,34.1,30.11,West,279,0.0,13.0,93,0.03,,OVC040,0.14,VWS V14.01,2013-12-26 21:23:00,
2013-12-26 16:28:00,35.7,33.6,30.12,WNW,284,3.0,13.0,92,0.03,,OVC040,0.14,VWS V14.01,2013-12-26 21:28:00,
2013-12-26 16:30:00,35.7,33.6,30.12,WNW,288,1.0,13.0,92,0.03,,CLR,0.14,VWS V14.01,2013-12-26 21:30:00,
2013-12-26 16:33:00,35.6,33.2,30.12,West,265,2.0,12.0,91,0.03,,OVC040,0.14,VWS V14.01,2013-12-26 21:33:00,
2013-12-26 16:38:00,35.5,33.1,30.12,WNW,287,4.0,12.0,91,0.03,,OVC040,0.14,VWS V14.01,2013-12-26 21:38:00,
2013-12-26 16:43:00,35.3,32.9,30.12,WNW,291,2.0,12.0,91,0.03,,OVC040,0.14,VWS V14.01,2013-12-26 21:43:00,
2013-12-26 16:48:00,35.3,32.9,30.12,West,280,3.0,12.0,91,0.03,,OVC040,0.14,VWS V14.01,2013-12-26 21:48:00,
2013-12-26 16:53:00,35.3,32.7,30.12,West,275,2.0,12.0,90,0.03,,OVC040,0.14,VWS V14.01,2013-12-26 21:53:00,
2013-12-26 16:58:00,35.3,32.7,30.12,West,271,2.0,12.0,90,0.03,,OVC040,0.14,VWS V14.01,2013-12-26 21:58:00,
2013-12-26 17:00:00,35.2,32.6,30.12,NW,310,2.0,12.0,90,0.03,,CLR,0.14,VWS V14.01,2013-12-26 22:00:00,
2013-12-26 17:03:00,35.2,32.6,30.12,WNW,282,9.0,12.0,90,0.00,,OVC100,0.14,VWS V14.01,2013-12-26 22:03:00,
2013-12-26 17:08:00,35.2,32.3,30.13,WNW,290,2.0,14.0,89,0.00,,OVC100,0.14,VWS V14.01,2013-12-26 22:08:00,
2013-12-26 17:13:00,35.1,31.9,30.13,West,271,6.0,14.0,88,0.00,,OVC100,0.14,VWS V14.01,2013-12-26 22:13:00,
2013-12-26 17:18:00,35.1,31.9,30.13,WSW,247,2.0,14.0,88,0.00,,OVC100,0.14,VWS V14.01,2013-12-26 22:18:00,
2013-12-26 17:23:00,35.0,31.5,30.13,West,279,3.0,14.0,87,0.00,,OVC100,0.14,VWS V14.01,2013-12-26 22:23:00,
2013-12-26 17:28:00,34.8,31.3,30.13,WNW,300,10.0,14.0,87,0.00,,OVC100,0.14,VWS V14.01,2013-12-26 22:28:00,
2013-12-26 17:30:00,34.8,31.0,30.13,WNW,303,5.0,14.0,86,0.00,,CLR,0.14,VWS V14.01,2013-12-26 22:30:00,
2013-12-26 17:33:00,34.7,31.0,30.13,West,277,4.0,10.0,86,0.00,,OVC100,0.14,VWS V14.01,2013-12-26 22:33:00,
2013-12-26 17:35:00,34.6,30.9,30.13,WNW,292,4.0,10.0,86,0.00,,OVC100,0.14,VWS V14.01,2013-12-26 22:35:00,
2013-12-26 17:40:00,34.5,30.8,30.13,WNW,286,7.0,12.0,86,0.00,,OVC100,0.14,VWS V14.01,2013-12-26 22:40:00,
2013-12-26 17:45:00,34.4,30.6,30.13,WNW,292,3.0,12.0,86,0.00,,OVC100,0.14,VWS V14.01,2013-12-26 22:45:00,
2013-12-26 17:50:00,34.3,30.3,30.14,WNW,283,6.0,12.0,85,0.00,,OVC100,0.14,VWS V14.01,2013-12-26 22:50:00,
2013-12-26 17:55:00,34.1,30.1,30.15,West,263,6.0,12.0,85,0.00,,OVC100,0.14,VWS V14.01,2013-12-26 22:55:00,
2013-12-26 18:00:00,33.9,29.6,30.15,West,280,8.0,9.0,84,0.00,,FEW055,0.14,VWS V14.01,2013-12-26 23:00:00,
2013-12-26 18:05:00,33.8,29.2,30.16,WNW,287,12.0,15.0,83,0.00,,FEW055,0.14,VWS V14.01,2013-12-26 23:05:00,
2013-12-26 18:10:00,33.7,28.8,30.16,NW,315,10.0,15.0,82,0.00,,FEW055,0.14,VWS V14.01,2013-12-26 23:10:00,
2013-12-26 18:15:00,33.6,28.7,30.17,West,275,9.0,15.0,82,0.00,,FEW055,0.14,VWS V14.01,2013-12-26 23:15:00,
2013-12-26 18:20:00,33.5,28.3,30.17,WNW,290,14.0,22.0,81,0.00,,FEW055,0.14,VWS V14.01,2013-12-26 23:20:00,
2013-12-26 18:25:00,33.5,28.3,30.17,WNW,290,7.0,22.0,81,0.00,,FEW055,0.14,VWS V14.01,2013-12-26 23:25:00,
2013-12-26 18:30:00,33.3,28.1,30.18,WNW,299,12.0,12.0,81,0.00,,FEW055,0.14,VWS V14.01,2013-12-26 23:30:00,
2013-12-26 18:35:00,33.2,28.3,30.18,NW,313,8.0,13.0,82,0.00,,FEW055,0.14,VWS V14.01,2013-12-26 23:35:00,
2013-12-26 18:36:00,33.2,28.3,30.18,NW,304,3.0,13.0,82,0.00,,FEW055,0.14,VWS V14.01,2013-12-26 23:36:00,
2013-12-26 18:41:00,33.1,28.2,30.18,West,272,8.0,14.0,82,0.00,,FEW055,0.14,VWS V14.01,2013-12-26 23:41:00,
2013-12-26 18:42:00,33.0,28.1,30.18,West,267,10.0,14.0,82,0.00,,FEW055,0.14,VWS V14.01,2013-12-26 23:42:00,
2013-12-26 18:47:00,32.9,28.0,30.18,West,269,2.0,14.0,82,0.00,,FEW055,0.14,VWS V14.01,2013-12-26 23:47:00,
2013-12-26 18:49:00,32.9,28.0,30.19,WNW,296,5.0,14.0,82,0.00,,FEW055,0.14,VWS V14.01,2013-12-26 23:49:00,
2013-12-26 18:54:00,32.9,28.0,30.19,NW,311,4.0,14.0,82,0.00,,FEW055,0.14,VWS V14.01,2013-12-26 23:54:00,
2013-12-26 18:59:00,32.7,27.8,30.19,West,273,6.0,14.0,82,0.00,,FEW055,0.14,VWS V14.01,2013-12-26 23:59:00,
2013-12-26 19:00:00,32.7,27.8,30.19,NNW,335,6.0,14.0,82,0.00,,CLR,0.14,VWS V14.01,2013-12-27 00:00:00,
2013-12-26 19:04:00,32.7,27.8,30.19,West,265,3.0,13.0,82,0.00,,CLR,0.14,VWS V14.01,2013-12-27 00:04:00,
2013-12-26 19:09:00,32.6,27.7,30.19,West,260,4.0,13.0,82,0.00,,CLR,0.14,VWS V14.01,2013-12-27 00:09:00,
2013-12-26 19:14:00,32.5,27.9,30.19,NW,313,4.0,13.0,83,0.00,,CLR,0.14,VWS V14.01,2013-12-27 00:14:00,
2013-12-26 19:19:00,32.4,27.5,30.20,WNW,296,4.0,13.0,82,0.00,,CLR,0.14,VWS V14.01,2013-12-27 00:19:00,
2013-12-26 19:24:00,32.4,27.5,30.20,WNW,290,11.0,13.0,82,0.00,,CLR,0.14,VWS V14.01,2013-12-27 00:24:00,
2013-12-26 19:29:00,32.4,27.5,30.20,WNW,290,4.0,13.0,82,0.00,,CLR,0.14,VWS V14.01,2013-12-27 00:29:00,
2013-12-26 19:30:00,32.3,27.7,30.20,WNW,282,6.0,13.0,83,0.00,,CLR,0.14,VWS V14.01,2013-12-27 00:30:00,
2013-12-26 19:34:00,32.3,27.4,30.20,WNW,299,10.0,10.0,82,0.00,,CLR,0.14,VWS V14.01,2013-12-27 00:34:00,
2013-12-26 19:39:00,32.2,27.3,30.20,WNW,295,4.0,10.0,82,0.00,,CLR,0.14,VWS V14.01,2013-12-27 00:39:00,
2013-12-26 19:44:00,32.1,27.2,30.20,WNW,284,2.0,10.0,82,0.00,,CLR,0.14,VWS V14.01,2013-12-27 00:44:00,
2013-12-26 19:49:00,32.1,27.2,30.21,WNW,283,2.0,11.0,82,0.00,,CLR,0.14,VWS V14.01,2013-12-27 00:49:00,
2013-12-26 19:54:00,32.0,27.1,30.21,WNW,299,0.0,11.0,82,0.00,,CLR,0.14,VWS V14.01,2013-12-27 00:54:00,
2013-12-26 19:59:00,31.9,27.0,30.21,West,267,0.0,11.0,82,0.00,,CLR,0.14,VWS V14.01,2013-12-27 00:59:00,
2013-12-26 20:00:00,31.9,27.3,30.21,West,271,6.0,11.0,83,0.00,,CLR,0.14,VWS V14.01,2013-12-27 01:00:00,
2013-12-26 20:04:00,31.8,26.9,30.21,WNW,299,7.0,8.0,82,0.00,,CLR,0.14,VWS V14.01,2013-12-27 01:04:00,
2013-12-26 20:09:00,31.8,26.9,30.21,WSW,253,3.0,8.0,82,0.00,,CLR,0.14,VWS V14.01,2013-12-27 01:09:00,
2013-12-26 20:14:00,31.9,27.0,30.21,WNW,300,3.0,10.0,82,0.00,,CLR,0.14,VWS V14.01,2013-12-27 01:14:00,
2013-12-26 20:19:00,31.8,26.9,30.22,WNW,286,2.0,10.0,82,0.00,,CLR,0.14,VWS V14.01,2013-12-27 01:19:00,
2013-12-26 20:24:00,31.8,26.6,30.22,West,261,6.0,10.0,81,0.00,,CLR,0.14,VWS V14.01,2013-12-27 01:24:00,
2013-12-26 20:29:00,31.7,26.5,30.22,WNW,286,6.0,10.0,81,0.00,,CLR,0.14,VWS V14.01,2013-12-27 01:29:00,
2013-12-26 20:30:00,31.7,26.5,30.22,WNW,302,1.0,10.0,81,0.00,,CLR,0.14,VWS V14.01,2013-12-27 01:30:00,
2013-12-26 20:34:00,31.7,26.5,30.22,West,268,9.0,9.0,81,0.00,,CLR,0.14,VWS V14.01,2013-12-27 01:34:00,
2013-12-26 20:38:00,31.7,26.5,30.22,West,281,7.0,11.0,81,0.00,,CLR,0.14,VWS V14.01,2013-12-27 01:38:00,
2013-12-26 20:43:00,31.6,26.5,30.22,WSW,252,4.0,11.0,81,0.00,,CLR,0.14,VWS V14.01,2013-12-27 01:43:00,
2013-12-26 20:48:00,31.6,26.5,30.22,WNW,290,2.0,11.0,81,0.00,,CLR,0.14,VWS V14.01,2013-12-27 01:48:00,
2013-12-26 20:53:00,31.7,26.2,30.22,West,275,1.0,11.0,80,0.00,,CLR,0.14,VWS V14.01,2013-12-27 01:53:00,
2013-12-26 20:58:00,31.7,26.2,30.22,WNW,299,5.0,11.0,80,0.00,,CLR,0.14,VWS V14.01,2013-12-27 01:58:00,
2013-12-26 21:00:00,31.7,26.2,30.22,West,271,9.0,11.0,80,0.00,,CLR,0.14,VWS V14.01,2013-12-27 02:00:00,
2013-12-26 21:03:00,31.6,26.1,30.22,WNW,300,2.0,10.0,80,0.00,,CLR,0.14,VWS V14.01,2013-12-27 02:03:00,
2013-12-26 21:08:00,31.5,26.0,30.22,WNW,296,3.0,10.0,80,0.00,,CLR,0.14,VWS V14.01,2013-12-27 02:08:00,
2013-12-26 21:13:00,31.5,26.0,30.22,WNW,290,2.0,11.0,80,0.00,,CLR,0.14,VWS V14.01,2013-12-27 02:13:00,
2013-12-26 21:18:00,31.4,26.0,30.22,West,268,2.0,11.0,80,0.00,,CLR,0.14,VWS V14.01,2013-12-27 02:18:00,
2013-12-26 21:23:00,31.4,26.0,30.23,West,277,3.0,11.0,80,0.00,,CLR,0.14,VWS V14.01,2013-12-27 02:23:00,
2013-12-26 21:28:00,31.4,26.0,30.23,West,268,4.0,11.0,80,0.00,,CLR,0.14,VWS V14.01,2013-12-27 02:28:00,
2013-12-26 21:30:00,31.4,26.0,30.23,West,281,4.0,11.0,80,0.00,,BKN110,0.14,VWS V14.01,2013-12-27 02:30:00,
2013-12-26 21:33:00,31.4,26.0,30.23,WNW,300,5.0,8.0,80,0.00,,CLR,0.14,VWS V14.01,2013-12-27 02:33:00,
2013-12-26 21:39:00,31.3,25.9,30.23,WNW,286,1.0,8.0,80,0.00,,CLR,0.14,VWS V14.01,2013-12-27 02:39:00,
2013-12-26 21:44:00,31.2,26.1,30.23,West,280,4.0,8.0,81,0.00,,CLR,0.14,VWS V14.01,2013-12-27 02:44:00,
2013-12-26 21:49:00,31.0,25.9,30.23,WNW,295,1.0,8.0,81,0.00,,CLR,0.14,VWS V14.01,2013-12-27 02:49:00,
2013-12-26 21:54:00,30.9,25.8,30.23,WNW,296,1.0,8.0,81,0.00,,CLR,0.14,VWS V14.01,2013-12-27 02:54:00,
2013-12-26 21:59:00,30.8,25.7,30.23,WNW,288,2.0,8.0,81,0.00,,CLR,0.14,VWS V14.01,2013-12-27 02:59:00,
2013-12-26 22:00:00,30.8,25.7,30.23,WNW,284,1.0,8.0,81,0.00,,CLR,0.14,VWS V14.01,2013-12-27 03:00:00,
2013-12-26 22:04:00,30.7,25.9,30.23,WNW,288,3.0,7.0,82,0.00,,CLR,0.14,VWS V14.01,2013-12-27 03:04:00,
2013-12-26 22:09:00,30.6,25.8,30.23,WNW,299,4.0,7.0,82,0.00,,CLR,0.14,VWS V14.01,2013-12-27 03:09:00,
2013-12-26 22:14:00,30.6,25.8,30.23,WNW,297,3.0,10.0,82,0.00,,CLR,0.14,VWS V14.01,2013-12-27 03:14:00,
2013-12-26 22:19:00,30.6,25.8,30.23,West,269,4.0,10.0,82,0.00,,CLR,0.14,VWS V14.01,2013-12-27 03:19:00,
2013-12-26 22:24:00,30.6,25.8,30.23,WNW,290,1.0,10.0,82,0.00,,CLR,0.14,VWS V14.01,2013-12-27 03:24:00,
2013-12-26 22:29:00,30.6,25.8,30.23,West,263,4.0,10.0,82,0.00,,CLR,0.14,VWS V14.01,2013-12-27 03:29:00,
2013-12-26 22:30:00,30.6,25.8,30.23,West,261,4.0,10.0,82,0.00,,CLR,0.14,VWS V14.01,2013-12-27 03:30:00,
2013-12-26 22:34:00,30.6,25.8,30.24,West,272,4.0,9.0,82,0.00,,CLR,0.14,VWS V14.01,2013-12-27 03:34:00,
2013-12-26 22:39:00,30.5,25.7,30.24,WNW,297,4.0,9.0,82,0.00,,CLR,0.14,VWS V14.01,2013-12-27 03:39:00,
2013-12-26 22:44:00,30.5,25.7,30.23,WNW,291,1.0,9.0,82,0.00,,CLR,0.14,VWS V14.01,2013-12-27 03:44:00,
2013-12-26 22:49:00,30.4,25.6,30.23,WSW,253,1.0,9.0,82,0.00,,CLR,0.14,VWS V14.01,2013-12-27 03:49:00,
2013-12-26 22:54:00,30.3,25.5,30.23,WNW,296,1.0,9.0,82,0.00,,CLR,0.14,VWS V14.01,2013-12-27 03:54:00,
2013-12-26 22:59:00,30.2,25.4,30.23,WNW,302,2.0,9.0,82,0.00,,CLR,0.14,VWS V14.01,2013-12-27 03:59:00,
2013-12-26 23:00:00,30.2,25.4,30.23,WNW,303,3.0,9.0,82,0.00,,CLR,0.14,VWS V14.01,2013-12-27 04:00:00,
2013-12-26 23:04:00,30.2,25.4,30.23,NW,304,1.0,8.0,82,0.00,,CLR,0.14,VWS V14.01,2013-12-27 04:04:00,
2013-12-26 23:09:00,30.1,25.3,30.24,WSW,248,3.0,8.0,82,0.00,,CLR,0.14,VWS V14.01,2013-12-27 04:09:00,
2013-12-26 23:14:00,30.1,25.3,30.24,West,281,1.0,8.0,82,0.00,,CLR,0.14,VWS V14.01,2013-12-27 04:14:00,
2013-12-26 23:19:00,30.2,25.4,30.24,WNW,290,4.0,9.0,82,0.00,,CLR,0.14,VWS V14.01,2013-12-27 04:19:00,
2013-12-26 23:24:00,30.1,25.3,30.24,NW,310,3.0,9.0,82,0.00,,CLR,0.14,VWS V14.01,2013-12-27 04:24:00,
2013-12-26 23:29:00,30.0,25.2,30.24,WSW,254,3.0,9.0,82,0.00,,CLR,0.14,VWS V14.01,2013-12-27 04:29:00,
2013-12-26 23:30:00,30.0,25.2,30.24,West,265,3.0,9.0,82,0.00,,CLR,0.14,VWS V14.01,2013-12-27 04:30:00,
2013-12-26 23:34:00,29.9,25.1,30.23,WNW,288,4.0,7.0,82,0.00,,CLR,0.14,VWS V14.01,2013-12-27 04:34:00,
2013-12-26 23:39:00,29.8,25.0,30.23,WNW,293,2.0,7.0,82,0.00,,CLR,0.14,VWS V14.01,2013-12-27 04:39:00,
2013-12-26 23:44:00,29.7,25.2,30.23,West,272,4.0,7.0,83,0.00,,CLR,0.14,VWS V14.01,2013-12-27 04:44:00,
2013-12-26 23:49:00,29.6,25.1,30.23,WNW,294,2.0,7.0,83,0.00,,CLR,0.14,VWS V14.01,2013-12-27 04:49:00,
2013-12-26 23:54:00,29.5,25.0,30.23,NNW,327,1.0,7.0,83,0.00,,CLR,0.14,VWS V14.01,2013-12-27 04:54:00,
2013-12-26 23:59:00,29.4,24.9,30.23,WNW,300,2.0,7.0,83,0.00,,CLR,0.14,VWS V14.01,2013-12-27 04:59:00,